DW6658 Weather Reports


time (UTC)temp
C
wind
direction
speed
KPH
gust
KPH
rain 1hr
cm
rain 24hr
cm
rain mn
cm
humidity
%
barometer
mb
20260504044555 7 0 0.0 0.0 0.00 0.00 0.00 69 1003.3
20260504043051 8 0 0.0 0.0 0.00 0.00 0.00 66 1003.6
20260504041559 8 0 0.0 0.0 0.00 0.00 0.00 63 1003.6
20260504040052 10 0 0.0 3.2 0.00 0.00 0.00 59 1003.9
20260504034555 9 0 0.0 1.6 0.00 0.00 0.00 62 1004.1
20260504033057 10 0 0.0 0.0 0.00 0.00 0.00 60 1004.3
20260504031605 10 0 0.0 0.0 0.00 0.00 0.00 56 1004.5
20260504030112 11 0 0.0 0.0 0.00 0.00 0.00 54 1004.8
20260504024551 11 0 0.0 1.6 0.00 0.00 0.00 52 1004.8
20260504023050 12 0 0.0 1.6 0.00 0.00 0.00 49 1004.8
20260504021549 13 0 0.0 0.0 0.00 0.00 0.00 47 1004.6
20260504020050 13 0 0.0 0.0 0.00 0.00 0.00 44 1004.8
20260504014550 15 0 0.0 0.0 0.00 0.00 0.00 39 1004.6
20260504013050 17 0 0.0 0.0 0.00 0.00 0.00 32 1004.7
20260504011548 18 0 0.0 1.6 0.00 0.00 0.00 30 1004.7
20260504010051 18 0 0.0 9.7 0.00 0.00 0.00 29 1004.8
20260504004549 19 273 1.6 8.0 0.00 0.00 0.00 29 1004.7
20260504003048 20 0 3.2 11.3 0.00 0.00 0.00 26 1005.0
20260504001550 21 286 8.0 17.7 0.00 0.00 0.00 24 1005.0
20260504000131 21 252 6.4 19.3 0.00 0.00 0.00 24 1004.9
20260503234550 21 288 4.8 22.5 0.00 0.00 0.00 25 1005.1
20260503233054 21 341 11.3 25.7 0.00 0.00 0.00 25 1005.0
20260503231554 21 269 8.0 27.4 0.00 0.00 0.00 25 1005.2
20260503230059 21 264 11.3 22.5 0.00 0.00 0.00 27 1005.2
20260503224556 21 300 9.7 20.9 0.00 0.00 0.00 27 1005.3
20260503223057 21 312 6.4 22.5 0.00 0.00 0.00 25 1005.4
20260503221554 22 288 6.4 24.1 0.00 0.00 0.00 24 1005.4
20260503220056 21 263 8.0 25.7 0.00 0.00 0.00 24 1005.2
20260503214555 21 336 8.0 25.7 0.00 0.00 0.00 25 1005.3
20260503213054 21 312 6.4 27.4 0.00 0.00 0.00 23 1005.3
20260503211601 21 4 9.7 20.9 0.00 0.00 0.00 24 1005.3
20260503210050 21 275 6.4 22.5 0.00 0.00 0.00 25 1005.3
20260503204556 21 329 9.7 22.5 0.00 0.00 0.00 28 1005.5
20260503203108 21 0 8.0 17.7 0.00 0.00 0.00 30 1005.4
20260503201551 22 310 4.8 14.5 0.00 0.00 0.00 32 1005.7
20260503200055 21 342 16.1 30.6 0.00 0.00 0.00 33 1005.9
20260503194555 21 302 6.4 19.3 0.00 0.00 0.00 33 1006.0
20260503193056 21 342 6.4 19.3 0.00 0.00 0.00 34 1005.6
20260503191550 21 263 8.0 27.4 0.00 0.00 0.00 35 1006.0
20260503190050 21 317 8.0 24.1 0.00 0.00 0.00 35 1006.1
20260503184611 20 360 8.0 24.1 0.00 0.00 0.00 34 1006.0
20260503183100 21 341 4.8 20.9 0.00 0.00 0.00 34 1006.1
20260503181557 20 359 4.8 30.6 0.00 0.00 0.00 33 1006.2
20260503180057 20 263 8.0 24.1 0.00 0.00 0.00 35 1006.4
20260503174553 20 341 6.4 22.5 0.00 0.00 0.00 37 1006.4
20260503173051 20 286 14.5 25.7 0.00 0.00 0.00 37 1006.4
20260503171609 18 77 1.6 30.6 0.00 0.00 0.00 41 1006.6
20260503090107 13 153 9.7 27.4 0.00 0.00 0.00 45 1006.2
20260503081601 11 8 1.6 8.0 0.00 0.00 0.00 62 1006.9